Lima, OH

3:40 AM EDT on June 25, 2017 (GMT -0400)
Lima Allen County

Weather History for KAOH - April, 2013

Change the Weather History Date:

Thursday, April 11, 2013

  Actual Average (KFDY) Record (KFDY)
Temperature  
Mean Temperature 46 °F -  
Max Temperature 50 °F 55 °F 80 °F (1977)
Min Temperature 42 °F 35 °F 24 °F (1975)
Degree Days  
Heating Degree Days 19    
Moisture  
Dew Point 45 °F    
Average Humidity 92    
Maximum Humidity 100    
Minimum Humidity 87    
Precipitation  
Precipitation 1.02 in - - ()
Sea Level Pressure  
Sea Level Pressure 29.73 in    
Wind  
Wind Speed 11 mph (ENE)    
Max Wind Speed 26 mph    
Max Gust Speed 40 mph    
Visibility 4 miles    
Events Rain , Thunderstorm    
Averages and records for this station are not official NWS values.
T = Trace of Precipitation, MM = Missing Value Source: NWS Daily Summary

Daily Weather History Graph

Daily Weather History Graph

Search for Another Location

Airport or City:

Trip Planner

Search our weather history database for the weather conditions in past years. The results will help you decide how hot, cold, wet, or windy it might be!

Date:

Astronomy

Apr. 11, 2013 Rise Set
Actual Time 7:03 AM EDT 8:11 PM EDT
Civil Twilight 6:35 AM EDT 8:39 PM EDT
Nautical Twilight 6:01 AM EDT 9:13 PM EDT
Astronomical Twilight 5:26 AM EDT 9:48 PM EDT
Moon 7:33 AM EDT (4/11) 9:45 PM EDT (4/11)
Length of Visible Light 14h 04m
Length of Day
13h 08m
New Moon, 2% of the Moon is Illuminated
Apr 11
New Moon
Apr 18
First Quarter
Apr 25
Full
May 2
Last Quarter
May 9
New

Hourly Weather History & Observations

Time (EDT) Temp. Windchill Dew Point Humidity Pressure Visibility Wind Dir Wind Speed Gust Speed Precip Events Conditions
12:27 AM 48.2 °F - - N/A% 29.86 in 6.0 mi East 9.2 mph - 0.02 in Rain , Thunderstorm Rain
12:53 AM 48.0 °F - - N/A% 29.83 in 3.0 mi East 11.5 mph - 0.14 in Rain Heavy Rain
1:49 AM 48.2 °F - - N/A% 29.82 in 5.0 mi East 8.1 mph - 0.05 in Rain , Thunderstorm Light Rain
2:09 AM 48.2 °F - - N/A% 29.81 in 8.0 mi NE 5.8 mph - 0.00 in   Overcast
2:53 AM 48.0 °F - - N/A% 29.77 in 6.0 mi ENE 11.5 mph - 0.00 in   Haze
3:53 AM 46.0 °F 40.2 °F - N/A% 29.78 in 3.0 mi ENE 12.7 mph - N/A   Overcast
4:28 AM 44.6 °F 42.2 °F - N/A% 29.78 in 2.5 mi Variable 4.6 mph 20.7 mph N/A   Overcast
4:48 AM 46.4 °F 40.1 °F - N/A% 29.84 in 3.0 mi WNW 15.0 mph 40.3 mph N/A   Overcast
4:53 AM 46.0 °F 37.2 °F - N/A% 29.87 in 2.5 mi WNW 26.5 mph 33.4 mph N/A   Overcast
5:00 AM 44.6 °F 36.1 °F - N/A% 29.87 in 2.0 mi NW 21.9 mph 33.4 mph 0.00 in Rain Light Rain
5:36 AM 42.8 °F 35.1 °F - N/A% 29.87 in 4.0 mi North 16.1 mph - 0.18 in Rain Rain
5:43 AM 42.8 °F 35.8 °F - N/A% 29.85 in 5.0 mi NNE 13.8 mph - 0.20 in Rain Light Rain
5:53 AM 43.0 °F 36.0 °F - N/A% 29.83 in 6.0 mi NE 13.8 mph - 0.21 in Rain Light Rain
6:53 AM 43.0 °F 36.4 °F 43.0 °F 100% 29.83 in 10.0 mi ENE 12.7 mph - 0.03 in   Overcast
7:53 AM 44.1 °F 39.0 °F 44.1 °F 100% 29.83 in 4.0 mi ESE 9.2 mph - 0.13 in Rain Rain
8:53 AM 45.0 °F 40.1 °F 45.0 °F 100% 29.80 in 8.0 mi East 9.2 mph - 0.08 in   Overcast
9:29 AM 46.4 °F 42.9 °F 44.6 °F 93% 29.78 in 7.0 mi NNE 6.9 mph - 0.00 in   Overcast
9:53 AM 46.9 °F - 46.0 °F 97% 29.78 in 6.0 mi Variable 6.9 mph - 0.00 in   Overcast
11:53 AM 48.9 °F - 46.0 °F 90% 29.80 in 5.0 mi ENE 6.9 mph - N/A   Overcast
2:44 PM 48.2 °F - 46.4 °F 93% 29.74 in 1.2 mi East 15.0 mph - N/A   Overcast
2:53 PM 48.9 °F - 46.0 °F 90% 29.75 in 1.5 mi East 13.8 mph - N/A   Overcast
3:38 PM 48.2 °F - 46.4 °F 93% 29.73 in 2.0 mi ENE 10.4 mph - 0.04 in Rain Light Rain
3:53 PM 48.9 °F - 46.0 °F 90% 29.73 in 3.0 mi ENE 9.2 mph - 0.05 in Rain Light Rain
4:45 PM 50.0 °F - 46.4 °F 87% 29.69 in 4.0 mi ENE 10.4 mph - 0.02 in Rain Light Rain
4:53 PM 48.9 °F - 46.0 °F 90% 29.70 in 4.0 mi ENE 11.5 mph - 0.02 in Rain Light Rain
5:53 PM 48.9 °F - 46.0 °F 90% 29.69 in 4.0 mi ENE 10.4 mph - 0.01 in Rain Light Rain
6:53 PM 46.9 °F - 44.1 °F 90% 29.66 in 3.0 mi NE 6.9 mph - 0.04 in Rain Light Rain
7:51 PM 46.4 °F 41.9 °F 42.8 °F 87% 29.64 in 4.0 mi ENE 9.2 mph - 0.06 in Rain Light Rain
7:53 PM 46.0 °F 41.4 °F 43.0 °F 89% 29.65 in 4.0 mi ENE 9.2 mph - 0.06 in Rain Light Rain
8:20 PM 46.4 °F 41.9 °F 42.8 °F 87% 29.63 in 5.0 mi East 9.2 mph - 0.03 in Rain Light Rain
8:34 PM 46.4 °F 43.5 °F 44.6 °F 93% 29.63 in 4.0 mi ENE 5.8 mph - 0.05 in Rain Light Rain
8:53 PM 46.0 °F 41.9 °F 44.1 °F 93% 29.65 in 5.0 mi East 8.1 mph - 0.09 in Rain Light Rain
9:40 PM 46.4 °F 42.9 °F 44.6 °F 93% 29.61 in 5.0 mi East 6.9 mph - 0.06 in Rain Light Rain
9:50 PM 46.4 °F 41.9 °F 44.6 °F 93% 29.60 in 5.0 mi East 9.2 mph - 0.07 in Rain Light Rain
9:53 PM 46.9 °F - 44.1 °F 90% 29.61 in 5.0 mi East 9.2 mph - 0.08 in Rain Light Rain
10:27 PM 46.4 °F 40.1 °F 44.6 °F 93% 29.55 in 5.0 mi East 15.0 mph - 0.02 in Rain Light Rain
10:53 PM 48.0 °F - 45.0 °F 89% 29.55 in 5.0 mi East 12.7 mph - 0.02 in Rain Light Rain
11:40 PM 48.2 °F - 44.6 °F 87% 29.57 in 2.0 mi East 5.8 mph - 0.03 in Rain Light Rain
11:53 PM 48.0 °F - 45.0 °F 89% 29.57 in 2.5 mi East 4.6 mph - 0.06 in Rain Light Rain